SWQ3944 KAEX-MHLM

Flight info

Callsign SWQ3944
Flight time 2h 36m
Altitude 37000
Route AEX DCT LEV A770 KEHLI UA770 TABSA/N0453F390 UA770 BETAS UL209 NAPLA UA770 MID UB753 SAP
Aircraft B738/M-SDE2E3FGHIRWXY/LB1

Departure

Time 2026-04-18 21:54
Airport Alexandria International Airport (KAEX)

Arrival

Time 2026-04-19 00:31
Airport Ramón Villeda Morales International Airport (MHLM)
Time Latitude Longitude Altitude Speed Heading
2026-04-18 21:28 31.32281 -92.54283 95 ft 0 kts 37°
2026-04-18 21:40 31.32269 -92.54295 94 ft 4 kts 37°
2026-04-18 21:40 31.32247 -92.54314 94 ft 4 kts 37°
2026-04-18 21:41 31.32226 -92.54333 94 ft 4 kts 39°
2026-04-18 21:41 31.32206 -92.54354 94 ft 4 kts 39°
2026-04-18 21:41 31.32193 -92.54362 94 ft 2 kts 324°
2026-04-18 21:41 31.32173 -92.54345 94 ft 4 kts 324°
2026-04-18 21:42 31.32159 -92.54333 93 ft 1 kts 324°
2026-04-18 21:48 31.32162 -92.54336 93 ft 1 kts 322°
2026-04-18 21:48 31.32178 -92.54350 94 ft 4 kts 322°
2026-04-18 21:48 31.32210 -92.54379 95 ft 7 kts 323°
2026-04-18 21:48 31.32257 -92.54419 95 ft 10 kts 324°
2026-04-18 21:49 31.32316 -92.54470 95 ft 12 kts 324°
2026-04-18 21:49 31.32396 -92.54492 95 ft 13 kts
2026-04-18 21:49 31.32489 -92.54503 95 ft 14 kts 341°
2026-04-18 21:49 31.32592 -92.54502 95 ft 16 kts
2026-04-18 21:50 31.32706 -92.54481 93 ft 17 kts
2026-04-18 21:50 31.32828 -92.54459 93 ft 18 kts
2026-04-18 21:50 31.32959 -92.54435 93 ft 20 kts
2026-04-18 21:50 31.33097 -92.54410 93 ft 21 kts
2026-04-18 21:51 31.33244 -92.54384 95 ft 22 kts
2026-04-18 21:51 31.33396 -92.54357 93 ft 21 kts
2026-04-18 21:51 31.33500 -92.54338 92 ft 16 kts 10°
2026-04-18 21:51 31.33612 -92.54320 92 ft 15 kts 356°
2026-04-18 21:52 31.33640 -92.54335 94 ft 0 kts 313°
2026-04-18 21:52 31.33641 -92.54337 92 ft 1 kts 307°
2026-04-18 21:52 31.33652 -92.54372 95 ft 8 kts 284°
2026-04-18 21:53 31.33632 -92.54439 93 ft 11 kts 204°
2026-04-18 21:53 31.33545 -92.54456 93 ft 18 kts 189°
2026-04-18 21:53 31.33195 -92.54518 95 ft 89 kts 188°
2026-04-18 21:53 31.32348 -92.54674 96 ft 155 kts 189°
2026-04-18 21:54 31.31154 -92.54882 464 ft 186 kts 188°
2026-04-18 21:54 31.29781 -92.55113 1043 ft 210 kts 189°
2026-04-18 21:54 31.28324 -92.55399 1905 ft 213 kts 189°
2026-04-18 21:54 31.26864 -92.55587 2698 ft 212 kts 189°
2026-04-18 21:55 31.25437 -92.55821 3497 ft 201 kts 190°
2026-04-18 21:55 31.24026 -92.56082 4131 ft 207 kts 191°
2026-04-18 21:55 31.22621 -92.56317 4871 ft 209 kts 189°
2026-04-18 21:55 31.21084 -92.56500 4987 ft 232 kts 184°
2026-04-18 21:56 31.19469 -92.56019 5168 ft 253 kts 145°
2026-04-18 21:56 31.18175 -92.54562 5485 ft 269 kts 132°
2026-04-18 21:56 31.16913 -92.52856 5947 ft 282 kts 131°
2026-04-18 21:56 31.15632 -92.51100 6676 ft 285 kts 131°
2026-04-18 21:57 31.14330 -92.49343 7407 ft 287 kts 133°
2026-04-18 21:57 31.13000 -92.47583 8095 ft 291 kts 133°
2026-04-18 21:57 31.11643 -92.45816 8848 ft 294 kts 134°
2026-04-18 21:57 31.10259 -92.44036 9615 ft 298 kts 135°
2026-04-18 21:58 31.08853 -92.42245 10324 ft 303 kts 135°
2026-04-18 21:58 31.07376 -92.40381 10523 ft 324 kts 136°
2026-04-18 21:58 31.05790 -92.38391 10707 ft 344 kts 136°
2026-04-18 21:58 31.04131 -92.36313 11113 ft 354 kts 136°
2026-04-18 21:59 31.02442 -92.34199 11782 ft 358 kts 136°
2026-04-18 21:59 31.00747 -92.32079 12566 ft 358 kts 137°
2026-04-18 21:59 30.99045 -92.29954 13234 ft 360 kts 137°
2026-04-18 21:59 30.97335 -92.27824 13807 ft 364 kts 138°
2026-04-18 22:00 30.95597 -92.25662 14303 ft 368 kts 138°
2026-04-18 22:00 30.93833 -92.23471 14727 ft 374 kts 138°
2026-04-18 22:00 30.92041 -92.21246 15167 ft 379 kts 138°
2026-04-18 22:00 30.90221 -92.18989 15624 ft 384 kts 138°
2026-04-18 22:01 30.88380 -92.16705 16082 ft 389 kts 138°
2026-04-18 22:01 30.87148 -92.15177 16379 ft 393 kts 138°
2026-04-18 22:01 30.85267 -92.12847 16807 ft 398 kts 138°
2026-04-18 22:01 30.83360 -92.10485 17261 ft 403 kts 138°
2026-04-18 22:02 30.81429 -92.08094 17711 ft 408 kts 138°
2026-04-18 22:02 30.79474 -92.05676 18139 ft 413 kts 138°
2026-04-18 22:02 30.77492 -92.03226 18529 ft 418 kts 137°
2026-04-18 22:02 30.75495 -92.00757 18991 ft 420 kts 138°
2026-04-18 22:03 30.73495 -91.98286 19490 ft 420 kts 138°
2026-04-18 22:03 30.71490 -91.95810 19966 ft 422 kts 138°
2026-04-18 22:03 30.69477 -91.93327 20404 ft 424 kts 138°
2026-04-18 22:03 30.67445 -91.90824 20817 ft 427 kts 138°
2026-04-18 22:04 30.65396 -91.88302 21209 ft 430 kts 139°
2026-04-18 22:04 30.63342 -91.85774 21712 ft 431 kts 139°
2026-04-18 22:04 30.61283 -91.83240 22192 ft 431 kts 139°
2026-04-18 22:04 30.59218 -91.80702 22612 ft 433 kts 139°
2026-04-18 22:05 30.57143 -91.78154 23001 ft 436 kts 139°
2026-04-18 22:05 30.55055 -91.75592 23399 ft 438 kts 139°
2026-04-18 22:05 30.52957 -91.73019 23777 ft 440 kts 139°
2026-04-18 22:05 30.50851 -91.70438 24090 ft 442 kts 139°
2026-04-18 22:06 30.48728 -91.67838 24405 ft 445 kts 139°
2026-04-18 22:06 30.46597 -91.65231 24716 ft 447 kts 139°
2026-04-18 22:06 30.44455 -91.62612 25020 ft 449 kts 139°
2026-04-18 22:06 30.42330 -91.60014 25310 ft 451 kts 139°
2026-04-18 22:07 30.40137 -91.57335 25608 ft 453 kts 139°
2026-04-18 22:07 30.37992 -91.54717 25882 ft 456 kts 139°
2026-04-18 22:07 30.35805 -91.52049 26170 ft 458 kts 139°
2026-04-18 22:07 30.33606 -91.49369 26454 ft 460 kts 139°
2026-04-18 22:08 30.31398 -91.46679 26737 ft 462 kts 139°
2026-04-18 22:08 30.29181 -91.43981 27015 ft 464 kts 139°
2026-04-18 22:08 30.26920 -91.41230 27283 ft 466 kts 139°
2026-04-18 22:08 30.24681 -91.38509 27571 ft 468 kts 140°
2026-04-18 22:09 30.22432 -91.35777 27835 ft 470 kts 140°
2026-04-18 22:09 30.20194 -91.33061 28092 ft 473 kts 140°
2026-04-18 22:09 30.17926 -91.30311 28322 ft 475 kts 140°
2026-04-18 22:09 30.15640 -91.27540 28551 ft 477 kts 140°
2026-04-18 22:10 30.13348 -91.24763 28782 ft 479 kts 140°
2026-04-18 22:10 30.11043 -91.21973 28991 ft 481 kts 140°
2026-04-18 22:10 30.08732 -91.19179 29210 ft 483 kts 140°
2026-04-18 22:10 30.06405 -91.16366 29423 ft 485 kts 140°
2026-04-18 22:11 30.04072 -91.13549 29662 ft 487 kts 140°
2026-04-18 22:11 30.01726 -91.10718 29884 ft 489 kts 140°
2026-04-18 22:11 29.99372 -91.07878 30096 ft 491 kts 140°
2026-04-18 22:11 29.97010 -91.05033 30256 ft 493 kts 140°
2026-04-18 22:12 29.92247 -90.99300 30567 ft 497 kts 140°
2026-04-18 22:12 29.89851 -90.96418 30793 ft 497 kts 140°
2026-04-18 22:12 29.87458 -90.93541 31044 ft 497 kts 140°
2026-04-18 22:13 29.85073 -90.90676 31260 ft 497 kts 140°
2026-04-18 22:13 29.82676 -90.87800 31446 ft 498 kts 140°
2026-04-18 22:13 29.80270 -90.84916 31646 ft 498 kts 141°
2026-04-18 22:13 29.77870 -90.82040 31874 ft 498 kts 141°
2026-04-18 22:14 29.75466 -90.79162 32113 ft 498 kts 141°
2026-04-18 22:14 29.73061 -90.76286 32313 ft 499 kts 141°
2026-04-18 22:14 29.70656 -90.73412 32487 ft 500 kts 141°
2026-04-18 22:14 29.68244 -90.70531 32712 ft 500 kts 141°
2026-04-18 22:15 29.65827 -90.67645 32854 ft 502 kts 141°
2026-04-18 22:15 29.63403 -90.64753 32986 ft 504 kts 141°
2026-04-18 22:15 29.60969 -90.61851 33148 ft 505 kts 141°
2026-04-18 22:15 29.58533 -90.58948 33361 ft 504 kts 141°
2026-04-18 22:16 29.56104 -90.56055 33591 ft 503 kts 141°
2026-04-18 22:16 29.53671 -90.53161 33795 ft 503 kts 141°
2026-04-18 22:16 29.51238 -90.50271 33989 ft 503 kts 141°
2026-04-18 22:16 29.48811 -90.47390 34156 ft 503 kts 141°
2026-04-18 22:17 29.46377 -90.44502 34339 ft 502 kts 141°
2026-04-18 22:17 29.43951 -90.41626 34509 ft 502 kts 141°
2026-04-18 22:17 29.41520 -90.38746 34678 ft 502 kts 141°
2026-04-18 22:17 29.39092 -90.35872 34825 ft 502 kts 141°
2026-04-18 22:18 29.36693 -90.33035 34971 ft 502 kts 141°
2026-04-18 22:18 29.34261 -90.30160 35096 ft 503 kts 141°
2026-04-18 22:18 29.31823 -90.27281 35220 ft 503 kts 141°
2026-04-18 22:18 29.29389 -90.24408 35365 ft 503 kts 141°
2026-04-18 22:19 29.26919 -90.21492 35523 ft 503 kts 141°
2026-04-18 22:19 29.24514 -90.18657 35667 ft 502 kts 141°
2026-04-18 22:19 29.22049 -90.15753 35802 ft 503 kts 141°
2026-04-18 22:19 29.19453 -90.13135 35879 ft 491 kts 154°
2026-04-18 22:20 29.16507 -90.11313 35989 ft 475 kts 167°
2026-04-18 22:20 29.13405 -90.10210 36124 ft 460 kts 178°
2026-04-18 22:20 29.10278 -90.09842 36214 ft 448 kts 187°
2026-04-18 22:20 29.07168 -90.09717 36314 ft 448 kts 187°
2026-04-18 22:21 29.00924 -90.09454 36546 ft 449 kts 187°
2026-04-18 22:21 28.97802 -90.09301 36685 ft 449 kts 186°
2026-04-18 22:21 28.94680 -90.09137 36775 ft 450 kts 186°
2026-04-18 22:22 28.88415 -90.08793 36972 ft 451 kts 186°
2026-04-18 22:22 28.82133 -90.08443 37017 ft 453 kts 186°
2026-04-18 22:23 28.75833 -90.08092 37023 ft 454 kts 186°
2026-04-18 22:23 28.69520 -90.07742 37025 ft 455 kts 186°
2026-04-18 22:24 28.63196 -90.07392 37026 ft 455 kts 186°
2026-04-18 22:24 28.56864 -90.07043 37023 ft 456 kts 186°
2026-04-18 22:25 28.50522 -90.06693 37028 ft 456 kts 186°
2026-04-18 22:25 28.44222 -90.06346 37021 ft 457 kts 186°
2026-04-18 22:26 28.37870 -90.05996 37025 ft 457 kts 186°
2026-04-18 22:26 28.31521 -90.05647 37023 ft 457 kts 186°
2026-04-18 22:27 28.25158 -90.05298 37031 ft 458 kts 186°
2026-04-18 22:27 28.18793 -90.04932 37024 ft 458 kts 185°
2026-04-18 22:28 28.12420 -90.04553 37029 ft 459 kts 185°
2026-04-18 22:28 28.06047 -90.04175 37062 ft 458 kts 186°
2026-04-18 22:29 27.99753 -90.03797 37024 ft 447 kts 186°
2026-04-18 22:29 27.93576 -90.03432 37023 ft 443 kts 186°
2026-04-18 22:30 27.87432 -90.03075 37023 ft 442 kts 186°
2026-04-18 22:30 27.81273 -90.02722 37036 ft 445 kts 186°
2026-04-18 22:31 27.75054 -90.02362 37042 ft 449 kts 186°
2026-04-18 22:31 27.68825 -90.02000 37038 ft 453 kts 186°
2026-04-18 22:32 27.62520 -90.01631 37034 ft 456 kts 185°
2026-04-18 22:32 27.56168 -90.01260 37028 ft 458 kts 185°
2026-04-18 22:33 27.49800 -90.00888 37023 ft 458 kts 185°
2026-04-18 22:33 27.43429 -90.00516 37020 ft 458 kts 185°
2026-04-18 22:34 27.37076 -90.00146 37026 ft 456 kts 185°
2026-04-18 22:34 27.30732 -89.99778 37012 ft 457 kts 185°
2026-04-18 22:35 27.24353 -89.99412 37024 ft 461 kts 185°
2026-04-18 22:35 27.17912 -89.99041 37031 ft 465 kts 185°
2026-04-18 22:36 27.11428 -89.98667 37033 ft 468 kts 184°
2026-04-18 22:36 27.04890 -89.98289 37028 ft 472 kts 184°
2026-04-18 22:37 26.98325 -89.97909 37026 ft 473 kts 184°
2026-04-18 22:37 26.91742 -89.97529 37020 ft 474 kts 184°
2026-04-18 22:38 26.85153 -89.97148 37021 ft 473 kts 184°
2026-04-18 22:38 26.78582 -89.96770 37016 ft 472 kts 184°
2026-04-18 22:39 26.72034 -89.96393 37020 ft 470 kts 184°
2026-04-18 22:39 26.65515 -89.96020 37018 ft 468 kts 184°
2026-04-18 22:40 26.59024 -89.95648 37020 ft 466 kts 184°
2026-04-18 22:40 26.52548 -89.95278 37022 ft 465 kts 184°
2026-04-18 22:41 26.46094 -89.94910 37022 ft 464 kts 184°
2026-04-18 22:41 26.39644 -89.94542 37025 ft 464 kts 184°
2026-04-18 22:42 26.33192 -89.94176 37025 ft 464 kts 184°
2026-04-18 22:42 26.26726 -89.93814 37023 ft 466 kts 184°
2026-04-18 22:43 26.20250 -89.93454 37025 ft 467 kts 184°
2026-04-18 22:43 26.13751 -89.93092 37025 ft 468 kts 184°
2026-04-18 22:44 26.07228 -89.92729 37025 ft 470 kts 184°
2026-04-18 22:44 26.00688 -89.92364 37022 ft 471 kts 183°
2026-04-18 22:45 25.94130 -89.91999 37022 ft 473 kts 183°
2026-04-18 22:45 25.88666 -89.91695 37018 ft 473 kts 183°
2026-04-18 22:46 25.82079 -89.91329 37020 ft 474 kts 183°
2026-04-18 22:46 25.75481 -89.90963 37016 ft 475 kts 183°
2026-04-18 22:47 25.68884 -89.90597 37016 ft 475 kts 183°
2026-04-18 22:47 25.62290 -89.90232 37016 ft 475 kts 183°
2026-04-18 22:48 25.55693 -89.89867 37019 ft 474 kts 183°
2026-04-18 22:48 25.49098 -89.89502 37015 ft 474 kts 183°
2026-04-18 22:49 25.42522 -89.89139 37016 ft 473 kts 183°
2026-04-18 22:49 25.35949 -89.88777 37010 ft 473 kts 183°
2026-04-18 22:50 25.29382 -89.88416 37013 ft 472 kts 183°
2026-04-18 22:50 25.22818 -89.88055 37006 ft 472 kts 182°
2026-04-18 22:51 25.16305 -89.87697 37008 ft 472 kts 182°
2026-04-18 22:51 25.09745 -89.87337 37004 ft 472 kts 182°
2026-04-18 22:52 25.03186 -89.86978 37005 ft 472 kts 182°
2026-04-18 22:52 24.96661 -89.86617 36997 ft 465 kts 183°
2026-04-18 22:53 24.90274 -89.86264 36998 ft 457 kts 184°
2026-04-18 22:53 24.83940 -89.85921 37000 ft 455 kts 184°
2026-04-18 22:54 24.77628 -89.85579 36999 ft 454 kts 184°
2026-04-18 22:54 24.71319 -89.85236 36996 ft 454 kts 183°
2026-04-18 22:55 24.64994 -89.84893 36997 ft 455 kts 183°
2026-04-18 22:55 24.58655 -89.84548 36994 ft 457 kts 183°
2026-04-18 22:56 24.52285 -89.84201 36994 ft 459 kts 183°
2026-04-18 22:56 24.45891 -89.83858 36991 ft 461 kts 183°
2026-04-18 22:57 24.39470 -89.83531 36991 ft 463 kts 183°
2026-04-18 22:57 24.33031 -89.83207 36993 ft 464 kts 183°
2026-04-18 22:58 24.26575 -89.82879 36991 ft 465 kts 183°
2026-04-18 22:58 24.20117 -89.82550 36987 ft 465 kts 183°
2026-04-18 22:59 24.13696 -89.82224 36987 ft 464 kts 183°
2026-04-18 22:59 24.07209 -89.81894 36981 ft 463 kts 183°
2026-04-18 23:00 24.00787 -89.81568 36982 ft 462 kts 183°
2026-04-18 23:00 23.94380 -89.81244 36979 ft 460 kts 183°
2026-04-18 23:01 23.88033 -89.80923 36981 ft 459 kts 183°
2026-04-18 23:01 23.81656 -89.80601 36978 ft 458 kts 183°
2026-04-18 23:02 23.75294 -89.80279 36980 ft 457 kts 183°
2026-04-18 23:02 23.68942 -89.79947 36981 ft 457 kts 183°
2026-04-18 23:03 23.62586 -89.79607 36980 ft 457 kts 182°
2026-04-18 23:03 23.56227 -89.79269 36976 ft 458 kts 182°
2026-04-18 23:04 23.49864 -89.78933 36979 ft 458 kts 182°
2026-04-18 23:04 23.43484 -89.78596 36980 ft 459 kts 182°
2026-04-18 23:05 23.37096 -89.78259 36972 ft 460 kts 182°
2026-04-18 23:05 23.30691 -89.77921 36974 ft 461 kts 182°
2026-04-18 23:06 23.24279 -89.77583 36970 ft 462 kts 182°
2026-04-18 23:06 23.17856 -89.77245 36973 ft 462 kts 182°
2026-04-18 23:07 23.11432 -89.76907 36969 ft 462 kts 182°
2026-04-18 23:07 23.05003 -89.76569 36969 ft 463 kts 182°
2026-04-18 23:08 22.98572 -89.76232 36971 ft 462 kts 182°
2026-04-18 23:08 22.92150 -89.75895 36964 ft 462 kts 182°
2026-04-18 23:09 22.85687 -89.75556 36966 ft 461 kts 182°
2026-04-18 23:09 22.79282 -89.75221 36965 ft 461 kts 182°
2026-04-18 23:10 22.72878 -89.74886 36964 ft 460 kts 182°
2026-04-18 23:10 22.66488 -89.74551 36965 ft 460 kts 182°
2026-04-18 23:11 22.60097 -89.74180 36961 ft 459 kts 181°
2026-04-18 23:11 22.53718 -89.73799 36959 ft 459 kts 181°
2026-04-18 23:12 22.47342 -89.73430 36962 ft 459 kts 182°
2026-04-18 23:12 22.40970 -89.73135 36965 ft 458 kts 182°
2026-04-18 23:13 22.34599 -89.72857 36950 ft 458 kts 182°
2026-04-18 23:13 22.28266 -89.72569 36954 ft 458 kts 182°
2026-04-18 23:14 22.21892 -89.72266 36945 ft 459 kts 181°
2026-04-18 23:14 22.15516 -89.71916 36955 ft 459 kts 181°
2026-04-18 23:15 22.09124 -89.71561 36956 ft 460 kts 181°
2026-04-18 23:15 22.02733 -89.71213 36952 ft 460 kts 181°
2026-04-18 23:16 21.96340 -89.70867 36936 ft 460 kts 181°
2026-04-18 23:16 21.89938 -89.70534 36935 ft 461 kts 181°
2026-04-18 23:17 21.83524 -89.70214 36939 ft 461 kts 181°
2026-04-18 23:17 21.77115 -89.69891 36943 ft 462 kts 181°
2026-04-18 23:18 21.70690 -89.69568 36937 ft 462 kts 181°
2026-04-18 23:18 21.64270 -89.69246 36935 ft 462 kts 181°
2026-04-18 23:19 21.57841 -89.68924 36941 ft 463 kts 181°
2026-04-18 23:19 21.51409 -89.68602 36938 ft 463 kts 181°
2026-04-18 23:20 21.44980 -89.68279 36933 ft 463 kts 181°
2026-04-18 23:20 21.38546 -89.67957 36938 ft 463 kts 181°
2026-04-18 23:21 21.32116 -89.67631 36941 ft 463 kts 181°
2026-04-18 23:21 21.25677 -89.67289 36928 ft 463 kts 181°
2026-04-18 23:22 21.19251 -89.66946 36921 ft 463 kts 181°
2026-04-18 23:23 21.09605 -89.66435 36905 ft 462 kts 181°
2026-04-18 23:23 21.03222 -89.66097 36896 ft 462 kts 180°
2026-04-18 23:24 20.96757 -89.65755 36894 ft 462 kts 180°
2026-04-18 23:24 20.90471 -89.64419 36898 ft 469 kts 163°
2026-04-18 23:25 20.84374 -89.61916 36891 ft 470 kts 161°
2026-04-18 23:25 20.78286 -89.59383 36895 ft 469 kts 162°
2026-04-18 23:26 20.72187 -89.56909 36892 ft 469 kts 162°
2026-04-18 23:26 20.66087 -89.54463 36891 ft 469 kts 162°
2026-04-18 23:27 20.59976 -89.52017 36889 ft 468 kts 162°
2026-04-18 23:27 20.53837 -89.49558 36884 ft 468 kts 162°
2026-04-18 23:28 20.47776 -89.47132 36883 ft 468 kts 162°
2026-04-18 23:28 20.41685 -89.44669 36886 ft 468 kts 161°
2026-04-18 23:29 20.35589 -89.42190 36878 ft 468 kts 162°
2026-04-18 23:29 20.29490 -89.39749 36876 ft 468 kts 162°
2026-04-18 23:30 20.23384 -89.37313 36878 ft 469 kts 162°
2026-04-18 23:30 20.18267 -89.35267 36875 ft 469 kts 162°
2026-04-18 23:31 20.12160 -89.32828 36883 ft 469 kts 162°
2026-04-18 23:31 20.06044 -89.30388 36883 ft 469 kts 162°
2026-04-18 23:32 19.99927 -89.27949 36880 ft 470 kts 161°
2026-04-18 23:32 19.93806 -89.25516 36886 ft 470 kts 162°
2026-04-18 23:33 19.87678 -89.23093 36889 ft 470 kts 162°
2026-04-18 23:33 19.81550 -89.20669 36885 ft 470 kts 161°
2026-04-18 23:34 19.75418 -89.18244 36890 ft 470 kts 161°
2026-04-18 23:34 19.69290 -89.15823 36887 ft 470 kts 161°
2026-04-18 23:35 19.63158 -89.13391 36889 ft 470 kts 161°
2026-04-18 23:35 19.57029 -89.10958 36890 ft 470 kts 161°
2026-04-18 23:36 19.50898 -89.08527 36891 ft 470 kts 161°
2026-04-18 23:36 19.44814 -89.06117 36891 ft 470 kts 161°
2026-04-18 23:37 19.38684 -89.03691 36893 ft 470 kts 161°
2026-04-18 23:37 19.32554 -89.01269 36891 ft 470 kts 161°
2026-04-18 23:38 19.26428 -88.98853 36891 ft 470 kts 161°
2026-04-18 23:38 19.20299 -88.96437 36899 ft 470 kts 161°
2026-04-18 23:39 19.14172 -88.94023 36899 ft 470 kts 161°
2026-04-18 23:39 19.08040 -88.91608 36902 ft 470 kts 161°
2026-04-18 23:40 19.01905 -88.89194 36902 ft 471 kts 161°
2026-04-18 23:40 18.95766 -88.86781 36909 ft 471 kts 161°
2026-04-18 23:41 18.89624 -88.84368 36909 ft 471 kts 161°
2026-04-18 23:41 18.83479 -88.81956 36909 ft 471 kts 161°
2026-04-18 23:42 18.77327 -88.79543 36909 ft 472 kts 161°
2026-04-18 23:42 18.71170 -88.77130 36916 ft 472 kts 161°
2026-04-18 23:43 18.65018 -88.74720 36917 ft 472 kts 161°
2026-04-18 23:43 18.58861 -88.72311 36919 ft 472 kts 161°
2026-04-18 23:44 18.52700 -88.69901 36921 ft 472 kts 161°
2026-04-18 23:44 18.46535 -88.67492 36925 ft 472 kts 161°
2026-04-18 23:45 18.40371 -88.65085 36917 ft 473 kts 161°
2026-04-18 23:45 18.34249 -88.62687 36917 ft 473 kts 161°
2026-04-18 23:46 18.28089 -88.60268 36915 ft 473 kts 161°
2026-04-18 23:46 18.21930 -88.57851 36916 ft 472 kts 161°
2026-04-18 23:47 18.15727 -88.55421 36915 ft 472 kts 161°
2026-04-18 23:47 18.09560 -88.53034 36915 ft 472 kts 161°
2026-04-18 23:48 18.03397 -88.50656 36912 ft 472 kts 161°
2026-04-18 23:48 17.97234 -88.48275 36914 ft 472 kts 161°
2026-04-18 23:49 17.91113 -88.45909 36916 ft 472 kts 161°
2026-04-18 23:49 17.84964 -88.43504 36918 ft 472 kts 161°
2026-04-18 23:50 17.78818 -88.41094 36916 ft 472 kts 161°
2026-04-18 23:50 17.72667 -88.38688 36915 ft 471 kts 161°
2026-04-18 23:51 17.66481 -88.36271 36917 ft 471 kts 161°
2026-04-18 23:51 17.60411 -88.33901 36890 ft 459 kts 161°
2026-04-18 23:51 17.57428 -88.32736 36896 ft 444 kts 161°
2026-04-18 23:52 17.54575 -88.31636 36890 ft 430 kts 163°
2026-04-18 23:52 17.51733 -88.30861 36907 ft 414 kts 171°
2026-04-18 23:52 17.48978 -88.30320 36889 ft 401 kts 172°
2026-04-18 23:52 17.46277 -88.29821 36894 ft 390 kts 172°
2026-04-18 23:53 17.43604 -88.29331 36914 ft 391 kts 172°
2026-04-18 23:53 17.38183 -88.28313 36780 ft 401 kts 171°
2026-04-18 23:54 17.32644 -88.27243 36823 ft 406 kts 171°
2026-04-18 23:54 17.27065 -88.26156 36918 ft 410 kts 171°
2026-04-18 23:55 17.21411 -88.25055 36933 ft 416 kts 171°
2026-04-18 23:55 17.15685 -88.23942 36926 ft 420 kts 171°
2026-04-18 23:56 17.10015 -88.22833 36905 ft 408 kts 171°
2026-04-18 23:56 17.04448 -88.21725 36910 ft 403 kts 171°
2026-04-18 23:57 16.98998 -88.20642 36913 ft 401 kts 171°
2026-04-18 23:57 16.93500 -88.19551 36931 ft 404 kts 171°
2026-04-18 23:58 16.87931 -88.18448 36926 ft 411 kts 171°
2026-04-18 23:58 16.82271 -88.17368 36907 ft 414 kts 171°
2026-04-18 23:59 16.76611 -88.16308 36800 ft 413 kts 171°
2026-04-18 23:59 16.70975 -88.15261 36492 ft 414 kts 171°
2026-04-18 23:59 16.68116 -88.14754 35679 ft 419 kts 171°
2026-04-19 00:00 16.65208 -88.14246 34587 ft 431 kts 171°
2026-04-19 00:00 16.62199 -88.13721 33261 ft 446 kts 170°
2026-04-19 00:00 16.59081 -88.13175 31844 ft 461 kts 169°
2026-04-19 00:00 16.55903 -88.12616 30957 ft 462 kts 169°
2026-04-19 00:01 16.52758 -88.12064 30367 ft 455 kts 168°
2026-04-19 00:01 16.49709 -88.11528 29820 ft 447 kts 168°
2026-04-19 00:01 16.46670 -88.10993 29158 ft 439 kts 168°
2026-04-19 00:01 16.43679 -88.10466 28474 ft 433 kts 168°
2026-04-19 00:02 16.40727 -88.09945 27739 ft 429 kts 168°
2026-04-19 00:02 16.37796 -88.09428 27031 ft 425 kts 168°
2026-04-19 00:02 16.34898 -88.08917 26372 ft 419 kts 168°
2026-04-19 00:02 16.32037 -88.08413 25736 ft 414 kts 168°
2026-04-19 00:03 16.29210 -88.07915 25104 ft 410 kts 168°
2026-04-19 00:03 16.26416 -88.07423 24500 ft 405 kts 168°
2026-04-19 00:03 16.23653 -88.06937 23913 ft 401 kts 168°
2026-04-19 00:03 16.20918 -88.06456 23291 ft 396 kts 169°
2026-04-19 00:04 16.18216 -88.05980 22619 ft 392 kts 168°
2026-04-19 00:04 16.15555 -88.05512 22144 ft 383 kts 168°
2026-04-19 00:04 16.12989 -88.05063 22007 ft 365 kts 168°
2026-04-19 00:04 16.10539 -88.04634 21871 ft 349 kts 168°
2026-04-19 00:05 16.08181 -88.04220 21511 ft 341 kts 168°
2026-04-19 00:05 16.05842 -88.03810 20969 ft 340 kts 168°
2026-04-19 00:05 16.03516 -88.03399 20430 ft 339 kts 167°
2026-04-19 00:05 16.01194 -88.02989 19931 ft 337 kts 168°
2026-04-19 00:06 15.98892 -88.02584 19467 ft 334 kts 167°
2026-04-19 00:06 15.96605 -88.02182 18999 ft 332 kts 167°
2026-04-19 00:06 15.94334 -88.01784 18534 ft 330 kts 167°
2026-04-19 00:06 15.92076 -88.01388 18062 ft 328 kts 167°
2026-04-19 00:07 15.89832 -88.00994 17567 ft 325 kts 167°
2026-04-19 00:07 15.87614 -88.00605 17112 ft 321 kts 167°
2026-04-19 00:07 15.85427 -88.00223 16668 ft 317 kts 169°
2026-04-19 00:07 15.83217 -88.00197 16178 ft 320 kts 187°
2026-04-19 00:08 15.81107 -88.00903 15732 ft 321 kts 206°
2026-04-19 00:08 15.79306 -88.02274 15283 ft 322 kts 225°
2026-04-19 00:08 15.78015 -88.04162 14849 ft 322 kts 244°
2026-04-19 00:08 15.77292 -88.06348 14425 ft 320 kts 255°
2026-04-19 00:09 15.76774 -88.08587 13985 ft 318 kts 256°
2026-04-19 00:09 15.76297 -88.10822 13538 ft 316 kts 256°
2026-04-19 00:09 15.75834 -88.13048 13087 ft 313 kts 256°
2026-04-19 00:09 15.75387 -88.15236 12660 ft 309 kts 256°
2026-04-19 00:10 15.74952 -88.17400 12202 ft 307 kts 256°
2026-04-19 00:10 15.74325 -88.19482 11753 ft 299 kts 235°
2026-04-19 00:10 15.72878 -88.20928 11305 ft 287 kts 203°
2026-04-19 00:10 15.70980 -88.21369 10895 ft 278 kts 178°
2026-04-19 00:11 15.69083 -88.21098 10419 ft 275 kts 162°
2026-04-19 00:11 15.67344 -88.20317 10058 ft 271 kts 147°
2026-04-19 00:11 15.65944 -88.19023 9557 ft 272 kts 133°
2026-04-19 00:11 15.64693 -88.17537 9052 ft 272 kts 131°
2026-04-19 00:12 15.63488 -88.16062 8746 ft 265 kts 131°
2026-04-19 00:12 15.62713 -88.15111 8680 ft 256 kts 131°
2026-04-19 00:12 15.61572 -88.13715 8366 ft 251 kts 131°
2026-04-19 00:12 15.60472 -88.12375 8223 ft 238 kts 131°
2026-04-19 00:13 15.59415 -88.11091 7918 ft 231 kts 131°
2026-04-19 00:13 15.58381 -88.09835 7426 ft 228 kts 130°
2026-04-19 00:13 15.57349 -88.08596 7066 ft 226 kts 134°
2026-04-19 00:13 15.56075 -88.07670 6721 ft 225 kts 159°
2026-04-19 00:14 15.54545 -88.07422 6408 ft 225 kts 184°
2026-04-19 00:14 15.53046 -88.07895 6004 ft 229 kts 210°
2026-04-19 00:14 15.51688 -88.08766 5640 ft 228 kts 200°
2026-04-19 00:14 15.50197 -88.09386 5119 ft 236 kts 199°
2026-04-19 00:15 15.48602 -88.09724 4879 ft 233 kts 182°
2026-04-19 00:15 15.46975 -88.09828 4682 ft 234 kts 181°
2026-04-19 00:15 15.45358 -88.09937 4347 ft 233 kts 181°
2026-04-19 00:15 15.43743 -88.10036 4080 ft 232 kts 182°
2026-04-19 00:16 15.42128 -88.10015 3748 ft 231 kts 167°
2026-04-19 00:16 15.40705 -88.09374 3622 ft 215 kts 140°
2026-04-19 00:16 15.39567 -88.08454 3478 ft 203 kts 139°
2026-04-19 00:16 15.38568 -88.07460 3245 ft 196 kts 131°
2026-04-19 00:17 15.37650 -88.06461 3090 ft 187 kts 131°
2026-04-19 00:17 15.36749 -88.05500 3062 ft 186 kts 130°
2026-04-19 00:17 15.35845 -88.04555 3011 ft 182 kts 131°
2026-04-19 00:17 15.34960 -88.03640 3004 ft 180 kts 130°
2026-04-19 00:18 15.34059 -88.02708 3046 ft 188 kts 130°
2026-04-19 00:18 15.33175 -88.01716 3067 ft 183 kts 120°
2026-04-19 00:18 15.32738 -88.00528 2980 ft 175 kts 88°
2026-04-19 00:18 15.33024 -87.99361 2749 ft 165 kts 57°
2026-04-19 00:19 15.33817 -87.98568 2659 ft 154 kts 23°
2026-04-19 00:19 15.34799 -87.98197 2916 ft 149 kts 18°
2026-04-19 00:19 15.35806 -87.97921 3000 ft 149 kts
2026-04-19 00:19 15.36862 -87.97883 2858 ft 151 kts
2026-04-19 00:20 15.37870 -87.97781 2701 ft 151 kts 14°
2026-04-19 00:20 15.38910 -87.97518 2269 ft 154 kts 19°
2026-04-19 00:20 15.39883 -87.97033 1741 ft 153 kts 31°
2026-04-19 00:20 15.40686 -87.96353 1325 ft 148 kts 41°
2026-04-19 00:21 15.41440 -87.95667 998 ft 139 kts 40°
2026-04-19 00:21 15.42180 -87.95049 725 ft 134 kts 39°
2026-04-19 00:21 15.42856 -87.94438 508 ft 129 kts 38°
2026-04-19 00:21 15.43586 -87.93814 391 ft 141 kts 41°
2026-04-19 00:22 15.44337 -87.93151 178 ft 142 kts 38°
2026-04-19 00:22 15.45080 -87.92513 134 ft 138 kts 38°
2026-04-19 00:22 15.45811 -87.91871 429 ft 139 kts 39°
2026-04-19 00:22 15.46550 -87.91199 921 ft 148 kts 41°
2026-04-19 00:23 15.47372 -87.90439 1261 ft 170 kts 40°
2026-04-19 00:23 15.48298 -87.89692 2057 ft 159 kts 37°
2026-04-19 00:23 15.49138 -87.89047 2970 ft 157 kts 37°
2026-04-19 00:23 15.50151 -87.88317 2996 ft 189 kts 25°
2026-04-19 00:24 15.51454 -87.88071 3005 ft 196 kts 356°
2026-04-19 00:24 15.52755 -87.88526 2981 ft 201 kts 328°
2026-04-19 00:24 15.53543 -87.89726 2981 ft 210 kts 284°
2026-04-19 00:24 15.53357 -87.91203 3005 ft 212 kts 240°
2026-04-19 00:25 15.52406 -87.92375 3034 ft 217 kts 227°
2026-04-19 00:25 15.51296 -87.93467 3014 ft 221 kts 220°
2026-04-19 00:25 15.50158 -87.94545 3001 ft 221 kts 224°
2026-04-19 00:25 15.49083 -87.95662 2994 ft 216 kts 226°
2026-04-19 00:26 15.48044 -87.96771 3018 ft 212 kts 226°
2026-04-19 00:26 15.47013 -87.97867 3017 ft 215 kts 226°
2026-04-19 00:26 15.45968 -87.98980 3009 ft 217 kts 227°
2026-04-19 00:26 15.44953 -88.00109 2999 ft 210 kts 227°
2026-04-19 00:27 15.43954 -88.01180 2977 ft 204 kts 225°
2026-04-19 00:27 15.42793 -88.01997 2995 ft 202 kts 202°
2026-04-19 00:27 15.41431 -88.02261 2972 ft 201 kts 173°
2026-04-19 00:27 15.40108 -88.01829 2652 ft 206 kts 148°
2026-04-19 00:28 15.39022 -88.00910 2402 ft 199 kts 126°
2026-04-19 00:28 15.38392 -87.99667 2067 ft 190 kts 96°
2026-04-19 00:28 15.38492 -87.98382 1801 ft 175 kts 64°
2026-04-19 00:28 15.39149 -87.97398 1558 ft 160 kts 38°
2026-04-19 00:29 15.40068 -87.96793 1114 ft 157 kts 31°
2026-04-19 00:29 15.40922 -87.96211 931 ft 142 kts 41°
2026-04-19 00:29 15.41638 -87.95513 676 ft 144 kts 41°
2026-04-19 00:29 15.42446 -87.94800 579 ft 158 kts 40°
2026-04-19 00:30 15.43271 -87.94096 425 ft 144 kts 41°
2026-04-19 00:30 15.44000 -87.93451 228 ft 135 kts 39°
2026-04-19 00:30 15.44707 -87.92833 110 ft 124 kts 38°
2026-04-19 00:30 15.45276 -87.92345 110 ft 85 kts 40°
2026-04-19 00:31 15.45621 -87.92049 110 ft 43 kts 40°
2026-04-19 00:31 15.45737 -87.91946 109 ft 1 kts 37°
2026-04-19 00:31 15.45745 -87.91940 109 ft 7 kts 35°
2026-04-19 00:31 15.45818 -87.91945 107 ft 13 kts 314°
2026-04-19 00:32 15.45815 -87.92037 105 ft 16 kts 220°
2026-04-19 00:32 15.45721 -87.92117 107 ft 19 kts 221°
2026-04-19 00:32 15.45613 -87.92213 107 ft 22 kts 219°
2026-04-19 00:32 15.45498 -87.92311 107 ft 21 kts 225°
2026-04-19 00:33 15.45539 -87.92435 106 ft 20 kts 309°
2026-04-19 00:33 15.45560 -87.92523 104 ft 13 kts 237°
2026-04-19 00:33 15.45539 -87.92576 105 ft 5 kts 284°
2026-04-19 00:33 15.45562 -87.92611 105 ft 5 kts 308°
2026-04-19 00:34 15.45578 -87.92631 105 ft 0 kts 310°